[[{"header":{"parameterUnit":"m.s-1","parameterCategory":2,"la1":30.2992,"la2":30.254,"lo1":-89.0895,"lo2":-89.0443,"dy":0.0025,"dx":0.0025,"nx":19,"ny":19,"refTime":"2026-05-21T09:00:00:Z","depth":"0","parameterNumber":2,"parameterNumberName":"U-component_of_CURRENTS"},"data":[0,0,0,0.147,0.1471,0.1513,0.1512,0.1405,0.1404,0,0,0,0,0,0,0,0,0,0,0,0.1436,0.1436,0.147,0.1472,0.1513,0.1512,0.1405,0.1404,0,0,0,0,0,0,0,0,0,0,0,0.1435,0.1436,0.1436,0.1472,0.1513,0.1512,0.1405,0.1408,0,0,0,0,0,0,0,0,0,0,0.1385,0.1379,0.1436,0.1437,0.1472,0.1513,0.1512,0.1409,0.1407,0.1349,0,0.1366,0,0.14,0.1396,0.1395,0,0,0,0.1444,0.1381,0.1408,0.1437,0.1473,0.1513,0.1486,0.1409,0.1407,0.1346,0.1365,0.1362,0.1398,0.1395,0.1394,0.1362,0.1362,0,0,0.1442,0.1421,0.141,0.1407,0.1493,0.1485,0.1488,0.1409,0.1397,0.1364,0.1361,0.1396,0.1394,0.1393,0.1361,0.1362,0,0,0,0.1454,0.1419,0.145,0.1409,0.144,0.1487,0.149,0.14,0.1416,0.136,0.1395,0.1393,0.1392,0.1361,0.1361,0.1382,0,0,0,0.1451,0.1429,0.1449,0.1434,0.1443,0.1442,0.1482,0.1421,0.1415,0.1395,0.1393,0.1391,0.136,0.1361,0.138,0.1379,0,0,0,0.1432,0.1427,0.1439,0.1433,0.1469,0.1446,0.1455,0.1421,0.1435,0.1395,0.139,0.136,0.1361,0.1378,0.1377,0.1379,0,0,0,0.1399,0.1415,0.1438,0.1454,0.1469,0.1491,0.1457,0.1449,0.1418,0.1393,0.136,0.1361,0.1378,0.1375,0.1378,0.1303,0.1303,0,0,0.1403,0.1414,0.1424,0.1448,0.1475,0.1483,0.1484,0.1431,0.142,0.1367,0.1368,0.1381,0.1377,0.1379,0.1382,0.1379,0,0,0,0.1415,0.1425,0.1435,0.1456,0.1476,0.1484,0.1462,0.1455,0.1439,0.1417,0.1403,0.14,0.14,0.1354,0.1352,0.1213,0.1368,0.1368,0.1367,0.1373,0.1403,0.1421,0.1458,0.1464,0.1475,0.1478,0.1469,0.1442,0.146,0.1434,0.1472,0.1425,0.1422,0.1281,0.1459,0.1459,0.1459,0.1459,0.1386,0.1397,0.1422,0.1456,0.1463,0.1462,0.1472,0.1476,0.1484,0.1475,0.1475,0.1399,0.1421,0.1271,0.1461,0.146,0.146,0.146,0.146,0.1361,0.1371,0.1404,0.1444,0.1445,0.1456,0.1453,0.1474,0.1496,0.151,0.1445,0.1443,0.1294,0.1506,0.1506,0.1506,0.1506,0.1506,0.1506,0.1317,0.1353,0.1385,0.1426,0.1426,0.1428,0.1441,0.145,0.1454,0.1458,0.1457,0.1289,0.1486,0.1464,0.1506,0.1506,0.1506,0.1506,0.1506,0.1292,0.1319,0.1365,0.138,0.1383,0.1346,0.1375,0.1368,0.1388,0.1385,0.1221,0.1428,0.1407,0.1408,0.1384,0.1404,0.1404,0.1404,0.1404,0.1265,0.1287,0.1339,0.1345,0.1325,0.1301,0.1241,0.124,0.1182,0.1098,0.1101,0.1056,0.1066,0.1023,0.1033,0.1001,0.0922,0.0922,0.0921,0.1258,0.1285,0.1301,0.1326,0.1289,0.1237,0.1153,0.1065,0.0931,0.089,0.0923,0.0943,0.0867,0.0894,0.0822,0.0846,0.0793,0,0]},{"header":{"parameterUnit":"m.s-1","parameterCategory":2,"la1":30.2992,"la2":30.254,"lo1":-89.0895,"lo2":-89.0443,"dy":0.0025,"dx":0.0025,"nx":19,"ny":19,"refTime":"2026-05-21T09:00:00:Z","depth":"0","parameterNumber":3,"parameterNumberName":"V-component_of_CURRENTS"},"data":[0,0,0,0.0484,0.0485,0.0527,0.0527,0.0498,0.0498,0,0,0,0,0,0,0,0,0,0,0,0.0457,0.0458,0.0483,0.0485,0.0527,0.0527,0.0498,0.0498,0,0,0,0,0,0,0,0,0,0,0,0.0457,0.0458,0.0459,0.0486,0.0527,0.0527,0.0498,0.0482,0,0,0,0,0,0,0,0,0,0,0.045,0.0441,0.0458,0.0459,0.0486,0.0527,0.0527,0.0482,0.0483,0.0462,0,0.0478,0,0.05,0.0496,0.0496,0,0,0,0.0465,0.044,0.0462,0.0459,0.0487,0.0527,0.0502,0.0483,0.0484,0.0463,0.0478,0.0478,0.05,0.0496,0.0496,0.0546,0.0546,0,0,0.0462,0.0451,0.0461,0.0463,0.0509,0.0501,0.0504,0.0485,0.0482,0.0478,0.0478,0.0499,0.0496,0.0495,0.0545,0.0546,0,0,0,0.047,0.0449,0.0472,0.0463,0.0485,0.0503,0.0506,0.0483,0.0494,0.0478,0.0499,0.0495,0.0495,0.0544,0.0545,0.0584,0,0,0,0.0467,0.0455,0.0471,0.0463,0.0486,0.0496,0.0504,0.0495,0.0494,0.0499,0.0495,0.0495,0.0543,0.0545,0.0582,0.0599,0,0,0,0.0454,0.0454,0.0465,0.0462,0.0493,0.0497,0.0506,0.0495,0.0507,0.0496,0.0495,0.0543,0.0544,0.0579,0.0595,0.0675,0,0,0,0.0431,0.0458,0.0464,0.0493,0.0493,0.0524,0.0507,0.0517,0.0509,0.0495,0.0543,0.0545,0.0578,0.0592,0.0672,0.0671,0.0687,0,0,0.0455,0.046,0.0477,0.0485,0.0516,0.0516,0.0547,0.053,0.0532,0.0538,0.0539,0.0583,0.0595,0.0674,0.0776,0.0788,0,0,0,0.0478,0.0487,0.0498,0.0517,0.0538,0.0556,0.0551,0.0573,0.0604,0.0543,0.0609,0.0615,0.0664,0.0658,0.0668,0.0684,0.0553,0.0553,0.0553,0.0473,0.049,0.0505,0.0526,0.0545,0.058,0.0617,0.0649,0.0626,0.067,0.0667,0.0779,0.0773,0.0781,0.0797,0.0689,0.0689,0.0689,0.0689,0.048,0.0487,0.0497,0.0519,0.0546,0.057,0.0658,0.0686,0.0785,0.0743,0.0789,0.0723,0.0794,0.0808,0.0692,0.0692,0.0691,0.0691,0.0691,0.0463,0.0472,0.0476,0.0488,0.0522,0.0567,0.067,0.0743,0.0819,0.0876,0.089,0.0889,0.0886,0.0904,0.0904,0.0905,0.0905,0.0905,0.0906,0.0445,0.0453,0.0448,0.0465,0.048,0.0546,0.0687,0.0788,0.0908,0.0947,0.0947,0.0935,0.0845,0.082,0.0913,0.0911,0.091,0.091,0.0909,0.0437,0.0434,0.0431,0.0437,0.0493,0.0592,0.0703,0.0902,0.1005,0.1074,0.1062,0.1001,0.0996,0.0986,0.0965,0.1091,0.1091,0.1091,0.1091,0.0423,0.0424,0.0433,0.0459,0.0523,0.0629,0.0827,0.0986,0.1115,0.1147,0.1147,0.1085,0.1077,0.1073,0.1062,0.1041,0.1183,0.1183,0.1183,0.0403,0.0414,0.0429,0.0471,0.0549,0.0694,0.0884,0.1057,0.1167,0.1189,0.1176,0.1173,0.108,0.1065,0.105,0.1034,0.0995,0,0]}],[{"header":{"parameterUnit":"m.s-1","parameterCategory":2,"la1":30.2992,"la2":30.254,"lo1":-89.0895,"lo2":-89.0443,"dy":0.0025,"dx":0.0025,"nx":19,"ny":19,"refTime":"2026-05-21T09:00:00:Z","depth":"2","parameterNumber":2,"parameterNumberName":"U-component_of_CURRENTS"},"data":[0,0,0,0.1445,0.1447,0.1488,0.1488,0.1363,0.1362,0,0,0,0,0,0,0,0,0,0,0,0.1406,0.1406,0.1445,0.1447,0.1488,0.1488,0.1364,0.1362,0,0,0,0,0,0,0,0,0,0,0,0.1405,0.1406,0.1407,0.1447,0.1488,0.1488,0.1364,0.1369,0,0,0,0,0,0,0,0,0,0,0.1348,0.1347,0.1406,0.1407,0.1448,0.1488,0.1488,0.1371,0.1369,0.1305,0,0.1322,0,0.1361,0.1353,0.1353,0,0,0,0.1414,0.1349,0.1373,0.1407,0.1449,0.1488,0.146,0.1371,0.1368,0.1301,0.1321,0.1318,0.1359,0.1352,0.1351,0.1311,0.1312,0,0,0.1411,0.1393,0.1375,0.1372,0.1469,0.1459,0.1462,0.1371,0.136,0.1321,0.1317,0.1357,0.1351,0.135,0.1311,0.1311,0,0,0,0.1427,0.1391,0.142,0.1374,0.1409,0.1461,0.1464,0.1363,0.1377,0.1316,0.1356,0.135,0.1349,0.131,0.1311,0.1341,0,0,0,0.1424,0.1404,0.1419,0.1406,0.1412,0.1413,0.1458,0.1382,0.1375,0.1356,0.135,0.1347,0.1309,0.1311,0.1339,0.1341,0,0,0,0.1402,0.1402,0.1413,0.1405,0.1444,0.1416,0.1423,0.1382,0.14,0.1352,0.1347,0.1309,0.131,0.1337,0.1338,0.1343,0,0,0,0.1372,0.1389,0.1412,0.1427,0.1444,0.1461,0.1425,0.1416,0.138,0.135,0.131,0.1311,0.1336,0.1336,0.1342,0.1252,0.1252,0,0,0.1378,0.1388,0.1396,0.142,0.1442,0.1453,0.1455,0.1396,0.138,0.1319,0.1319,0.1339,0.1338,0.1343,0.1334,0.1331,0,0,0,0.1388,0.1397,0.1403,0.1423,0.144,0.1453,0.1431,0.1422,0.1402,0.1376,0.136,0.1358,0.136,0.1304,0.1302,0.1318,0.1317,0.1317,0.1317,0.135,0.1375,0.1387,0.1421,0.1427,0.1443,0.1445,0.1436,0.1406,0.1427,0.1398,0.1443,0.1386,0.1383,0.1422,0.1422,0.1422,0.1422,0.1423,0.1361,0.1363,0.1387,0.1418,0.1429,0.1433,0.1443,0.145,0.1457,0.1446,0.1447,0.1358,0.1382,0.1425,0.1425,0.1424,0.1424,0.1424,0.1424,0.1328,0.1335,0.1372,0.1413,0.1419,0.1435,0.1432,0.1456,0.1477,0.1492,0.1416,0.1414,0.1437,0.1491,0.1491,0.1491,0.1491,0.1491,0.1491,0.1278,0.1316,0.1355,0.1401,0.1406,0.1414,0.1431,0.1438,0.1438,0.1437,0.1436,0.1466,0.1463,0.1441,0.1492,0.1492,0.1492,0.1492,0.1492,0.1239,0.1263,0.1331,0.1355,0.1371,0.1333,0.1367,0.1355,0.1375,0.1366,0.14,0.1401,0.1376,0.1376,0.1352,0.1377,0.1377,0.1377,0.1377,0.1185,0.1213,0.129,0.1323,0.1313,0.1288,0.1211,0.1148,0.1182,0.1135,0.1145,0.1103,0.1113,0.1071,0.1078,0.1047,0.0992,0.0991,0.099,0.1152,0.1204,0.1232,0.1298,0.1278,0.1219,0.11,0.091,0.0817,0.0972,0.1048,0.1357,0.1322,0.1327,0.1284,0.1287,0.1246,0,0]},{"header":{"parameterUnit":"m.s-1","parameterCategory":2,"la1":30.2992,"la2":30.254,"lo1":-89.0895,"lo2":-89.0443,"dy":0.0025,"dx":0.0025,"nx":19,"ny":19,"refTime":"2026-05-21T09:00:00:Z","depth":"2","parameterNumber":3,"parameterNumberName":"V-component_of_CURRENTS"},"data":[0,0,0,0.035,0.0352,0.0408,0.0408,0.0378,0.0378,0,0,0,0,0,0,0,0,0,0,0,0.0307,0.0308,0.035,0.0352,0.0408,0.0408,0.0378,0.0378,0,0,0,0,0,0,0,0,0,0,0,0.0307,0.0308,0.0308,0.0352,0.0408,0.0408,0.0378,0.0354,0,0,0,0,0,0,0,0,0,0,0.031,0.0306,0.0307,0.0308,0.0353,0.0408,0.0408,0.0354,0.0356,0.0332,0,0.0347,0,0.0382,0.0376,0.0376,0,0,0,0.0324,0.0305,0.0318,0.0308,0.0354,0.0408,0.0375,0.0356,0.0357,0.0334,0.0347,0.0348,0.0382,0.0376,0.0376,0.042,0.0421,0,0,0.0321,0.0316,0.0317,0.032,0.0375,0.0373,0.0377,0.0358,0.0361,0.0347,0.0348,0.0381,0.0376,0.0375,0.0419,0.042,0,0,0,0.0331,0.0313,0.0329,0.0319,0.035,0.0376,0.038,0.0361,0.0366,0.0348,0.0381,0.0375,0.0375,0.0419,0.042,0.0465,0,0,0,0.0328,0.0321,0.0327,0.0324,0.0351,0.0376,0.0384,0.0367,0.0367,0.0381,0.0375,0.0375,0.0418,0.0419,0.0462,0.0484,0,0,0,0.0304,0.032,0.0327,0.0324,0.0363,0.0377,0.038,0.0367,0.0388,0.0376,0.0375,0.0417,0.0419,0.046,0.048,0.0564,0,0,0,0.0292,0.0318,0.0327,0.0354,0.0363,0.0392,0.0381,0.0398,0.039,0.0375,0.0418,0.042,0.0459,0.0477,0.056,0.0554,0.0569,0,0,0.0318,0.0321,0.0332,0.0343,0.0367,0.0382,0.0419,0.0407,0.0408,0.041,0.0412,0.0463,0.048,0.0563,0.0648,0.0661,0,0,0,0.0336,0.0341,0.0348,0.0366,0.0386,0.0418,0.0426,0.0447,0.0479,0.042,0.0484,0.0493,0.0544,0.0534,0.0544,0.0427,0.0427,0.0427,0.0427,0.0341,0.0347,0.0354,0.0367,0.0389,0.0443,0.0482,0.0517,0.0498,0.0542,0.0546,0.066,0.0648,0.0657,0.0562,0.0562,0.0562,0.0563,0.0563,0.0342,0.0339,0.0344,0.036,0.0396,0.0436,0.0524,0.056,0.0661,0.0618,0.0666,0.06,0.0671,0.0567,0.0566,0.0565,0.0565,0.0565,0.0564,0.0323,0.0325,0.0333,0.0344,0.0387,0.0446,0.0549,0.0628,0.0701,0.0761,0.0775,0.0774,0.0695,0.0795,0.0796,0.0796,0.0797,0.0797,0.0798,0.0305,0.0311,0.0312,0.0331,0.0357,0.0435,0.0583,0.0681,0.0802,0.0838,0.0838,0.0739,0.0732,0.071,0.0805,0.0804,0.0803,0.0802,0.0801,0.0288,0.0276,0.0295,0.0312,0.0387,0.0485,0.0602,0.0799,0.0904,0.0971,0.0896,0.0891,0.0885,0.0875,0.0857,0.0985,0.0985,0.0985,0.0985,0.0244,0.0248,0.0281,0.0338,0.0417,0.052,0.07,0.0807,0.091,0.09,0.0903,0.0822,0.0817,0.0801,0.0792,0.0771,0.0877,0.0876,0.0876,0.0194,0.0231,0.0259,0.0344,0.0445,0.0579,0.0729,0.0764,0.077,0.0866,0.0832,0.0988,0.0874,0.0864,0.0839,0.0826,0.0791,0,0]}],[{"header":{"parameterUnit":"m.s-1","parameterCategory":2,"la1":30.2992,"la2":30.254,"lo1":-89.0895,"lo2":-89.0443,"dy":0.0025,"dx":0.0025,"nx":19,"ny":19,"refTime":"2026-05-21T09:00:00:Z","depth":"4","parameterNumber":2,"parameterNumberName":"U-component_of_CURRENTS"},"data":[0,0,0,-0.0084,-0.0083,-0.002,-0.0019,0.019,0.0192,0,0,0,0,0,0,0,0,0,0,0,-0.0098,-0.0098,-0.0084,-0.0083,-0.002,-0.0019,0.019,0.0192,0,0,0,0,0,0,0,0,0,0,0,-0.0098,-0.0098,-0.0098,-0.0083,-0.002,-0.0019,0.0189,0.0114,0,0,0,0,0,0,0,0,0,0,0.0038,0.0015,-0.0098,-0.0097,-0.0083,-0.002,-0.0019,0.0109,0.0119,0.0193,0,0.0195,0,0.0192,0.0208,0.0209,0,0,0,-0.0066,0.0007,0.0005,-0.0097,-0.0083,-0.002,-0.0044,0.0113,0.0125,0.0206,0.0198,0.0205,0.0195,0.0209,0.021,0.0367,0.0367,0,0,-0.007,-0.0061,-0.0003,0.0012,-0.0072,-0.0046,-0.0042,0.0119,0.0143,0.0198,0.0209,0.0199,0.0211,0.0212,0.0367,0.0367,0,0,0,-0.0091,-0.0063,-0.0071,0.0004,0.0002,-0.0044,-0.004,0.0136,0.0127,0.0211,0.0201,0.0212,0.0215,0.0367,0.0367,0.0316,0,0,0,-0.0093,-0.0078,-0.0072,-0.0063,-0.0003,0.0055,-0.0026,0.0116,0.0134,0.02,0.0212,0.0217,0.0367,0.0367,0.0317,0.0305,0,0,0,-0.01,-0.0078,-0.0078,-0.0063,-0.0047,0.0051,0.0054,0.0119,0.0128,0.0209,0.0218,0.0367,0.0367,0.0318,0.0307,0.0333,0,0,0,-0.0083,-0.0088,-0.0077,-0.0077,-0.0048,-0.0048,0.0052,0.0104,0.0165,0.0213,0.0367,0.0367,0.0319,0.0308,0.0334,0.0246,0,0,0,-0.0089,-0.0087,-0.0092,-0.0083,-0.0106,-0.0055,-0.0034,0.0106,0.0194,0.0327,0.033,0.0317,0.0307,0.0333,0.0247,0,0,0,0,-0.0095,-0.0107,-0.0109,-0.0113,-0.0105,-0.0072,0.0023,0.0086,0.0224,0.0227,0.0331,0.0327,0.0345,0.0296,0.0367,0.0367,0.0367,0.0367,0.0367,-0.0057,-0.009,-0.0121,-0.0152,-0.0135,-0.0068,-0.0015,0.0097,0.0184,0.0243,0.0295,0.0294,0.0239,0.0302,0.0302,0.0302,0.0301,0.0301,0.0301,-0.0103,-0.0148,-0.0156,-0.0209,-0.0173,-0.0136,-0.0008,0.0072,0.0209,0.026,0.028,0.0256,0.0296,0.0297,0.0298,0.0299,0.0299,0.0299,0.0299,-0.0109,-0.0154,-0.0186,-0.026,-0.022,-0.0146,-0.0045,0.0069,0.018,0.0212,0.0218,0.0281,0.0277,0.025,0.025,0.025,0.025,0.025,0.025,-0.0128,-0.0179,-0.0245,-0.03,-0.0283,-0.0207,-0.0037,0.0019,0.0116,0.0168,0.023,0.0278,0.0279,0.0276,0.0251,0.0251,0.025,0.025,0.025,-0.022,-0.0225,-0.0313,-0.0333,-0.0317,-0.0262,-0.0101,-0.0011,0.0053,0.0047,0.0149,0.0154,0.0177,0.0182,0.0176,0.012,0.0119,0.0118,0,-0.0259,-0.0281,-0.0357,-0.0369,-0.0364,-0.0273,-0.0184,-0.0124,-0.0049,-0.0016,-0.0005,0.0107,0.0112,0.0133,0.0136,0.0125,0,0,0,-0.0337,-0.033,-0.0371,-0.0385,-0.0368,-0.0273,-0.0161,-0.0129,-0.0014,-0.0067,0.0088,0.0095,0.0051,0.0253,0.0301,0.0303,0.0301,0,0]},{"header":{"parameterUnit":"m.s-1","parameterCategory":2,"la1":30.2992,"la2":30.254,"lo1":-89.0895,"lo2":-89.0443,"dy":0.0025,"dx":0.0025,"nx":19,"ny":19,"refTime":"2026-05-21T09:00:00:Z","depth":"4","parameterNumber":3,"parameterNumberName":"V-component_of_CURRENTS"},"data":[0,0,0,0.0028,0.0027,0.002,0.002,0.0029,0.003,0,0,0,0,0,0,0,0,0,0,0,0.0033,0.0033,0.0028,0.0027,0.002,0.002,0.0029,0.003,0,0,0,0,0,0,0,0,0,0,0,0.0032,0.0033,0.0033,0.0027,0.002,0.002,0.0029,0.0029,0,0,0,0,0,0,0,0,0,0,0.0034,0.0025,0.0033,0.0033,0.0027,0.002,0.002,0.0029,0.0029,0.004,0,0.0043,0,0.0038,0.0031,0.0031,0,0,0,0.0023,0.0025,0.0036,0.0033,0.0027,0.002,0.0022,0.0029,0.0029,0.004,0.0043,0.0043,0.0038,0.0031,0.0031,0.0039,0.0039,0,0,0.0024,0.0018,0.0035,0.0036,0.0032,0.0022,0.0022,0.0029,0.0025,0.0043,0.0043,0.0038,0.0031,0.0032,0.0039,0.0039,0,0,0,0.0028,0.0018,0.0028,0.0036,0.0034,0.0022,0.0022,0.0025,0.0032,0.0043,0.0039,0.0032,0.0032,0.0039,0.0039,0.0045,0,0,0,0.0028,0.0021,0.0028,0.0023,0.0034,0.0023,0.0017,0.0031,0.0032,0.0039,0.0032,0.0032,0.0039,0.0039,0.0045,0.0079,0,0,0,0.0032,0.0021,0.0025,0.0023,0.0023,0.0023,0.0029,0.0031,0.0029,0.0031,0.0032,0.0039,0.0039,0.0045,0.0078,0.0115,0,0,0,0.0019,0.0016,0.0025,0.0029,0.0023,0.0034,0.0029,0.0024,0.0025,0.0032,0.0039,0.0039,0.0045,0.0078,0.0114,0.0088,0,0,0,0.0007,0.0014,0.002,0.0029,0.0049,0.0035,0.0045,0.0038,0.0026,0.0038,0.0038,0.0045,0.0078,0.0115,0.0076,0,0,0,0,0.0013,0.0024,0.003,0.0048,0.0055,0.0077,0.0055,0.0042,0.003,0.0027,0.004,0.0061,0.0084,0.0064,0.0038,0.0038,0.0038,0.0038,0.0038,-0.0008,0.0019,0.005,0.0087,0.0096,0.0095,0.0095,0.0076,0.0046,0.0031,0.006,0.0089,0.0064,0.0037,0.0037,0.0037,0.0037,0.0037,0.0037,0.0016,0.0048,0.0095,0.0135,0.0164,0.0174,0.0154,0.0118,0.0099,0.0062,0.0083,0.0064,0.0037,0.0037,0.0037,0.0037,0.0037,0.0037,0.0037,0.0018,0.004,0.0087,0.0176,0.0229,0.0237,0.0252,0.0192,0.0141,0.0139,0.0129,0.0113,0.0121,0.0144,0.0144,0.0144,0.0145,0.0145,0.0145,-0.0001,0.0053,0.013,0.0218,0.0287,0.032,0.0303,0.0276,0.0221,0.0162,0.0152,0.0126,0.0122,0.0128,0.015,0.0149,0.0148,0.0148,0.0148,-0.0001,0.0029,0.0151,0.0235,0.0392,0.0389,0.0398,0.0312,0.0301,0.0258,0.0176,0.0173,0.0182,0.0178,0.0186,0.0225,0.0225,0.0225,0,-0.0009,0.0014,0.0198,0.0347,0.044,0.0441,0.04,0.036,0.027,0.0246,0.0297,0.0205,0.0201,0.0213,0.0209,0.022,0,0,0,0.0006,0.0056,0.0193,0.0354,0.0465,0.04,0.0372,0.0322,0.0306,0.0256,0.022,0.0221,0.0212,0.0163,0.0172,0.0168,0.0179,0,0]}]]